Location: Recife
(8.0585°S, 34.8848°W)
Time: 12:25:12
(UTC-03:00)

Courier 1B - Pass Details

Date: 17 April 2026
Orbit: 962 x 1209 km, 28.3° (Epoch: 7 May)

Event Time Altitude Azimuth Distance (km) Brightness Sun altitude
Rises 16:59:12 0° 278° (W) 3,806 13.7 3.3°
Reaches altitude 10° 17:03:44 10° 304° (WNW) 2,792 11.4 2.2°
Maximum altitude 17:06:40 13° 330° (NNW) 2,538 10.4 1.5°
Drops below altitude 10° 17:09:32 10° 356° (N) 2,728 10.1 0.8°
Sets 17:13:53 0° 23° (NNE) 3,640 10.4 -0.2°
